Regional Weather Roundup
Issued by NWS Little Rock, AR

Home | Current Version | Previous Version | Graphics & Text | Print | Product List | Glossary On
Versions: 1 2 3 4 5 6 7 8 9 10 11 12 13 14 15 16 17 18 19 20 21 22 23 24 25 26 27 28 29 30 31 32 33 34 35 36 37 38 39 40 41 42 43 44 45 46
000
ASUS44 KLZK 221905
RWRLZK

WEATHER ROUNDUP FOR ARKANSAS
NATIONAL WEATHER SERVICE LITTLE ROCK AR
200 PM CDT FRI MAY 22 2015

NOTE: "FAIR" INDICATES FEW OR NO CLOUDS BELOW 12,000 FEET WITH NO
SIGNIFICANT WEATHER AND/OR OBSTRUCTIONS TO VISIBILITY.

ARZ001-003-010-029-222000-
NORTHWEST ARKANSAS

CITY           SKY/WX    TMP DP  RH WIND       PRES   REMARKS
FAYETTEVILLE   CLOUDY    64  47  53 SE6       30.24F
FORT SMITH     CLOUDY    64  49  57 E12       30.23F
HARRISON       CLOUDY    64  48  56 SE8       30.27F
BENTONVILLE    CLOUDY    64  46  52 SE7       30.26S
ROGERS         CLOUDY    63  47  55 VRB5      30.26F
SILOAM SPGS    CLOUDY    63  48  59 E7        30.25F
HIGHFILL       CLOUDY    65  48  54 CALM      30.25F
SPRINGDALE     PTSUNNY   64  48  55 CALM      30.27F
$$

ARZ004-005-016-222000-
NORTH CENTRAL ARKANSAS

CITY           SKY/WX    TMP DP  RH WIND       PRES   REMARKS
BATESVILLE     MOSUNNY   70  46  43 NE6       30.28F
FLIPPIN        PTSUNNY   66  46  48 E5        30.26F
MTN HOME       PTSUNNY   67  46  47 SE6       30.27F
$$

ARZ040-041-222000-
WEST CENTRAL ARKANSAS

CITY           SKY/WX    TMP DP  RH WIND       PRES   REMARKS
MENA           PTSUNNY   70  52  52 E8        30.22S
MOUNT IDA      PTSUNNY   69  50  50 VRB6      30.21F
$$

ARZ009-017-025-026-028-222000-
NORTHEAST ARKANSAS

CITY           SKY/WX    TMP DP  RH WIND       PRES   REMARKS
CORNING          N/A     68  48  49 E3        30.29F
JONESBORO      SUNNY     67  46  47 SE6       30.28F
NEWPORT        MOSUNNY   67  48  50 CALM      30.29F
WALNUT RIDGE   SUNNY     66  46  48 S3        30.29F
BLYTHEVILLE    SUNNY     68  48  48 CALM      30.29F
$$

ARZ022-023-033-042-044-222000-
CENTRAL ARKANSAS

CITY           SKY/WX    TMP DP  RH WIND       PRES   REMARKS
LITTLE ROCK    MOSUNNY   70  50  49 VRB6      30.25F
N LITTLE ROCK  MOSUNNY   66  53  63 E9        30.25F
JACKSONVILLE   MOSUNNY   69  51  52 E12       30.25F
HOT SPRINGS    MOSUNNY   70  48  45 E7        30.23F
RUSSELLVILLE   CLOUDY    67  49  52 SE7       30.25F
CLINTON        FAIR      66  50  55 SE6       30.29S
$$

ARZ036-222000-
EAST ARKANSAS

CITY           SKY/WX    TMP DP  RH WIND       PRES   REMARKS
WEST MEMPHIS   SUNNY     70  49  47 N3        30.26F
$$

ARZ050-053-066-070-073-222000-
SOUTHWEST ARKANSAS

CITY           SKY/WX    TMP DP  RH WIND       PRES   REMARKS
ARKADELPHIA    FAIR      72  55  54 NE5       30.23F
CAMDEN         SUNNY     73  50  43 NE7       30.22F
EL DORADO      SUNNY     70  53  54 SE7       30.22F
DE QUEEN       MOSUNNY   68  52  56 E12       30.19F
$$

ARZ056-057-069-222000-
SOUTHEAST ARKANSAS

CITY           SKY/WX    TMP DP  RH WIND       PRES   REMARKS
PINE BLUFF     MOSUNNY   69  53  56 E10       30.25F
STUTTGART      MOSUNNY   70  50  49 NE8       30.26F
MONTICELLO     SUNNY     71  50  47 E7        30.23F

$$




USA.gov is the U.S. government's official web portal to all federal, state and local government web resources and services.